User: anonymous   Login
Location: Lac Lasalle
(46.0398°N, 74.1576°W)
Time: 21:08:48
(UTC-05:00)
Language:

PCSat - Orbit

View from above orbital plane
View from above orbital plane
View from above satellite
View from above satellite

Ground track
Ground track

The orbit data is extracted from the following two-line orbital elements,

1 26931U 01043C   21024.44087692 -.00000013  00000-0  26856-4 0  9994
2 26931  67.0518 292.1008 0007409 271.3211  88.7041 14.30603678  8643
Epoch (UTC): 24 January 2021 10:34:51
Eccentricity: 0.0007409
inclination: 67.0518°
perigee height: 784 km
apogee height: 795 km
right ascension of ascending node: 292.1008°
argument of perigee: 271.3211°
revolutions per day: 14.30603678
mean anomaly at epoch: 88.7041°
orbit number at epoch: 864

The dashed part of the orbit path shows where the satellite is in the earth's shadow,  

DLR